TimeCST,TemperatureF,Dew PointF,Humidity,Sea Level PressureIn,VisibilityMPH,Wind Direction,Wind SpeedMPH,Gust SpeedMPH,PrecipitationIn,Events,Conditions,WindDirDegrees,DateUTC
12:13 AM,5.0,1.4,85,29.76,10.0,WSW,3.5,-,N/A,,Clear,240,2012-12-11 06:13:00
12:33 AM,6.8,1.4,79,29.76,10.0,Calm,Calm,-,N/A,,Clear,0,2012-12-11 06:33:00
12:53 AM,6.8,3.2,85,29.76,10.0,Calm,Calm,-,N/A,,Mostly Cloudy,0,2012-12-11 06:53:00
1:13 AM,8.6,6.8,92,29.75,10.0,Calm,Calm,-,N/A,,Overcast,0,2012-12-11 07:13:00
1:33 AM,10.4,6.8,85,29.74,10.0,Calm,Calm,-,N/A,,Overcast,0,2012-12-11 07:33:00
1:53 AM,10.4,6.8,85,29.74,10.0,Calm,Calm,-,N/A,,Overcast,0,2012-12-11 07:53:00
2:13 AM,10.4,6.8,85,29.75,10.0,Calm,Calm,-,N/A,,Overcast,0,2012-12-11 08:13:00
2:33 AM,10.4,6.8,85,29.75,10.0,Calm,Calm,-,N/A,,Overcast,0,2012-12-11 08:33:00
2:53 AM,8.6,5.0,85,29.74,10.0,Calm,Calm,-,N/A,,Mostly Cloudy,0,2012-12-11 08:53:00
3:13 AM,6.8,1.4,79,29.73,10.0,Calm,Calm,-,N/A,,Scattered Clouds,0,2012-12-11 09:13:00
3:33 AM,6.8,1.4,79,29.73,10.0,Calm,Calm,-,N/A,,Mostly Cloudy,0,2012-12-11 09:33:00
3:53 AM,5.0,-0.4,78,29.72,10.0,Calm,Calm,-,N/A,,Overcast,0,2012-12-11 09:53:00
4:13 AM,3.2,-0.4,85,29.72,10.0,Calm,Calm,-,N/A,,Overcast,0,2012-12-11 10:13:00
4:33 AM,3.2,-0.4,85,29.71,10.0,Calm,Calm,-,N/A,,Overcast,0,2012-12-11 10:33:00
4:53 AM,5.0,1.4,85,29.70,10.0,Calm,Calm,-,N/A,,Mostly Cloudy,0,2012-12-11 10:53:00
5:13 AM,3.2,-2.2,78,29.70,10.0,Calm,Calm,-,N/A,,Mostly Cloudy,0,2012-12-11 11:13:00
5:33 AM,3.2,-0.4,85,29.71,7.0,Calm,Calm,-,N/A,Snow,Light Snow,0,2012-12-11 11:33:00
5:53 AM,3.2,-0.4,85,29.70,2.5,Calm,Calm,-,N/A,Snow,Light Snow,0,2012-12-11 11:53:00
6:13 AM,3.2,-0.4,85,29.70,1.2,Calm,Calm,-,N/A,Snow,Light Snow,0,2012-12-11 12:13:00
6:33 AM,5.0,1.4,85,29.69,1.8,Calm,Calm,-,N/A,Snow,Light Snow,0,2012-12-11 12:33:00
6:53 AM,8.6,3.2,79,29.69,2.0,Calm,Calm,-,N/A,Snow,Light Snow,0,2012-12-11 12:53:00
7:13 AM,8.6,5.0,85,29.69,1.8,WSW,3.5,-,N/A,Snow,Light Snow,240,2012-12-11 13:13:00
7:33 AM,8.6,5.0,85,29.69,3.0,WSW,3.5,-,N/A,Snow,Light Snow,250,2012-12-11 13:33:00
7:53 AM,8.6,5.0,85,29.69,5.0,SW,3.5,-,N/A,Snow,Light Snow,230,2012-12-11 13:53:00
8:13 AM,10.4,5.0,79,29.69,7.0,Calm,Calm,-,N/A,Snow,Light Snow,0,2012-12-11 14:13:00
8:33 AM,10.4,3.2,73,29.69,7.0,WSW,3.5,-,N/A,Snow,Light Snow,250,2012-12-11 14:33:00
8:53 AM,10.4,3.2,73,29.69,7.0,Calm,Calm,-,N/A,Snow,Light Snow,0,2012-12-11 14:53:00
9:13 AM,10.4,5.0,79,29.69,7.0,Calm,Calm,-,N/A,Snow,Light Snow,0,2012-12-11 15:13:00
9:33 AM,12.2,6.8,79,29.69,10.0,Calm,Calm,-,N/A,,Clear,0,2012-12-11 15:33:00
9:53 AM,14.0,6.8,73,29.70,10.0,West,4.6,-,N/A,,Clear,260,2012-12-11 15:53:00
10:13 AM,14.0,3.2,62,29.70,10.0,West,4.6,-,N/A,Snow,Light Snow,270,2012-12-11 16:13:00
10:33 AM,12.2,3.2,67,29.71,5.0,Calm,Calm,-,N/A,Snow,Light Snow,0,2012-12-11 16:33:00
10:53 AM,12.2,3.2,67,29.70,5.0,West,6.9,-,N/A,Snow,Light Snow,270,2012-12-11 16:53:00
11:13 AM,14.0,3.2,62,29.70,4.0,West,3.5,-,N/A,Snow,Light Snow,280,2012-12-11 17:13:00
11:33 AM,15.8,3.2,58,29.70,4.0,WSW,3.5,-,N/A,Snow,Light Snow,250,2012-12-11 17:33:00
11:53 AM,14.0,3.2,62,29.70,7.0,West,3.5,-,N/A,Snow,Light Snow,260,2012-12-11 17:53:00
12:13 PM,15.8,3.2,58,29.70,7.0,West,5.8,-,N/A,Snow,Light Snow,260,2012-12-11 18:13:00
12:33 PM,15.8,5.0,62,29.71,7.0,West,4.6,-,N/A,Snow,Light Snow,260,2012-12-11 18:33:00
12:53 PM,15.8,5.0,62,29.71,10.0,West,5.8,-,N/A,Snow,Light Snow,260,2012-12-11 18:53:00
1:13 PM,15.8,3.2,58,29.71,5.0,West,6.9,-,N/A,Snow,Light Snow,270,2012-12-11 19:13:00
1:33 PM,15.8,3.2,58,29.71,7.0,West,4.6,-,N/A,Snow,Light Snow,270,2012-12-11 19:33:00
1:53 PM,15.8,3.2,58,29.71,10.0,West,4.6,-,N/A,Snow,Light Snow,280,2012-12-11 19:53:00
2:13 PM,15.8,3.2,58,29.72,10.0,WNW,8.1,-,N/A,,Mostly Cloudy,290,2012-12-11 20:13:00
2:33 PM,14.0,3.2,62,29.73,7.0,WNW,3.5,-,N/A,Snow,Light Snow,290,2012-12-11 20:33:00
2:53 PM,14.0,3.2,62,29.74,10.0,West,5.8,-,N/A,Snow,Light Snow,280,2012-12-11 20:53:00
3:13 PM,14.0,3.2,62,29.75,10.0,West,3.5,-,N/A,Snow,Light Snow,280,2012-12-11 21:13:00
3:33 PM,12.2,3.2,67,29.76,7.0,West,4.6,-,N/A,Snow,Light Snow,270,2012-12-11 21:33:00
3:53 PM,12.2,3.2,67,29.77,10.0,West,6.9,-,N/A,,Mostly Cloudy,270,2012-12-11 21:53:00
4:13 PM,12.2,3.2,67,29.78,10.0,West,5.8,-,N/A,Snow,Light Snow,280,2012-12-11 22:13:00
4:53 PM,12.2,3.2,67,29.79,10.0,West,3.5,-,N/A,Snow,Light Snow,280,2012-12-11 22:53:00
5:13 PM,12.2,3.2,67,29.80,10.0,West,4.6,-,N/A,Snow,Light Snow,260,2012-12-11 23:13:00
5:33 PM,12.2,3.2,67,29.80,10.0,Calm,Calm,-,N/A,,Mostly Cloudy,0,2012-12-11 23:33:00
5:53 PM,12.2,3.2,67,29.81,10.0,Calm,Calm,-,N/A,Snow,Light Snow,0,2012-12-11 23:53:00
6:13 PM,12.2,3.2,67,29.81,10.0,Calm,Calm,-,N/A,,Mostly Cloudy,0,2012-12-12 00:13:00
6:33 PM,12.2,3.2,67,29.82,10.0,Calm,Calm,-,N/A,,Scattered Clouds,0,2012-12-12 00:33:00
6:53 PM,12.2,3.2,67,29.83,10.0,West,3.5,-,N/A,,Mostly Cloudy,270,2012-12-12 00:53:00
7:13 PM,12.2,3.2,67,29.83,3.0,WNW,4.6,-,N/A,Snow,Light Snow,290,2012-12-12 01:13:00
7:33 PM,12.2,3.2,67,29.84,5.0,West,3.5,-,N/A,Snow,Light Snow,280,2012-12-12 01:33:00
7:53 PM,10.4,1.4,67,29.85,10.0,West,3.5,-,N/A,,Mostly Cloudy,260,2012-12-12 01:53:00
8:13 PM,10.4,1.4,67,29.86,10.0,WNW,5.8,-,N/A,Snow,Light Snow,290,2012-12-12 02:13:00
8:33 PM,10.4,1.4,67,29.87,10.0,WNW,6.9,-,N/A,,Scattered Clouds,290,2012-12-12 02:33:00
8:53 PM,10.4,1.4,67,29.88,7.0,West,4.6,-,N/A,Snow,Light Snow,280,2012-12-12 02:53:00
9:13 PM,10.4,1.4,67,29.89,7.0,Calm,Calm,-,N/A,Snow,Light Snow,0,2012-12-12 03:13:00
9:33 PM,10.4,1.4,67,29.90,10.0,NW,4.6,-,N/A,,Mostly Cloudy,310,2012-12-12 03:33:00
9:53 PM,8.6,-0.4,67,29.91,10.0,West,3.5,-,N/A,,Scattered Clouds,280,2012-12-12 03:53:00
10:13 PM,8.6,-0.4,67,29.91,10.0,West,4.6,-,N/A,,Scattered Clouds,270,2012-12-12 04:13:00
10:33 PM,8.6,-0.4,67,29.92,10.0,West,3.5,-,N/A,Snow,Light Snow,280,2012-12-12 04:33:00
10:53 PM,8.6,-0.4,67,29.92,10.0,West,3.5,-,N/A,,Mostly Cloudy,270,2012-12-12 04:53:00
11:13 PM,8.6,-0.4,67,29.92,7.0,West,3.5,-,N/A,Snow,Light Snow,270,2012-12-12 05:13:00
11:33 PM,6.8,-0.4,72,29.93,7.0,Calm,Calm,-,N/A,Snow,Light Snow,0,2012-12-12 05:33:00
11:53 PM,6.8,-0.4,72,29.93,10.0,Calm,Calm,-,N/A,Snow,Light Snow,0,2012-12-12 05:53:00